Location: Helion Bumpstead
(52.0500°N, 0.4000°E)
Time: 09:08:05
(UTC+00:00)

Cosmos 1464 Rocket - Pass Details

Date: 15 November 2025
Orbit: 950 x 1001 km, 82.9° (Epoch: 14 December)

Event Time Altitude Azimuth Distance (km) Brightness Sun altitude
Rises 06:20:29 0° 345° (NNW) 3,659 6.7 -9.0°
Reaches altitude 10° 06:23:07 10° 339° (NNW) 2,702 6.0 -8.6°
Maximum altitude 06:28:50 42° 271° (W) 1,345 4.3 -7.8°
Drops below altitude 10° 06:34:29 10° 203° (SSW) 2,671 6.3 -7.0°
Sets 06:37:05 0° 197° (SSW) 3,612 7.1 -6.6°
